ZTF彗星

C/2021 D2 ( ZTF )

English version
Home page
Updated on December 28, 2022

---------------------------------------------------------------------

・ プロフィール

発見日 2021年2月19日
発見光度 19.5等
発見者 Zwicky Transient Facility

・ 写真集

・ 軌道要素

Epoch 2023 Feb. 25.0 TT = JDT 2460000.5
T 2022 Feb. 3.98367 TT                                  Rudenko
q   2.9462486            (2000.0)            P               Q
z  -0.0005803      Peri.  125.02741     -0.26313722     -0.52781052
 +/-0.0000003      Node   305.67908     +0.15110848     +0.80419354
e   1.0017096      Incl.   83.81832     +0.95285100     -0.27329253
>From 666 observations 2021 Feb. 19-2022 Dec. 1, mean residual 0".7.

・ 星図

・ 光度変化

        m1 = 9.8 + 5 logΔ + 10.0 log r(t + 175)

        ※ 灰色の曲線は、m1 = 8.7 + 5 logΔ + 10.0 log r の光度曲線です。

---------------------------------------------------------------------

軌道要素はM.P.E.C. 2022-X67に掲載されたものです。
星図はステラナビゲータ Ver.10 (アストロアーツ) で作成したものです。
光度グラフはComet for Windowsで作成したものです。

---------------------------------------------------------------------

Copyright(C) Seiichi Yoshida (comet@aerith.net). All rights reserved.